Torna al catalogo

COSMOS 2169

AttivoComunicazioniPO
NORAD 21783·PAYLOAD·🇷🇺 Russia

Lanciato Nov 12, 1991 da Plesetsk Cosmodrome

Loading…

Prossimi Passaggi (prossime 24 ore)

TLE

AggiornatoSource: Space-Track

Epoca: Sep 14, 2026, 09:46 UTC

1 21783U 91077E   26257.40741933  .00000042  00000-0  16432-3 0  9993
2 21783  82.6062 151.3433 0018394 124.2557 236.0282 12.66317419610086

Traccia COSMOS 2169 in tempo reale con AllMySat

Download on the App Store